Showing default

MOZ.5/SAFIR/RUBIN 5/SL-8, 28898

Orbit data source: Space-Track

MOZ.5/SAFIR/RUBIN 5/SL-8, 28898 is a payload satellite owned by KVR (DE) in SSO that was launched on Thu, 27 Oct 2005 UTC launched from the Plesetsk Missile And Space Complex (PKMTR). Payload-class satellites include a variety of spacecraft equipped with specific instruments for various scientific and technological missions. These include communications satellites like Starlink; space stations such as the ISS; scientific satellites like the Hubble; Earth observation satellites from companies like Planet Labs, Umbra, and HawkEye 360; GPS; miniature CubeSats for education and research; and military/defense satellites.

Loading next visibility...
Identifier
28898, 2005-043G
Orbit
SSO
Last TLE update
11 hours ago
Origin
Manufacturer
Polyot
Mission
Spacecraft
Bus & Motor
S3, Unknown motor
Mass
1,479 kg wet, 1,434 kg dry
Launch date (UTC)
2005-10-27 (20 years ago)
Launch vehicle
Unknown
Launch site
Plesetsk Missile And Space Complex (PKMTR)
Object type
Payload
Rocket body
Debris
Shape & HBR
Cyl, 4.2 m
Radar Cross Section
10.179 m², Large (>1 m²)

Expand to show TLE details & history

TLE from 11 hours ago
0 MOZ.5/SAFIR/RUBIN 5/SL-8
1 28898U 05043G   25188.93750746  .00000418  00000-0  89606-4 0  9998
2 28898  98.3046 324.5802 0018072 341.2133  18.8400 14.63747169672886
Epoch: 2025-07-07T22:30Z
TLE epoch observation values (Epoch: 2025-07-07T22:30:00.644Z)
Latitude
-0.00001°
Longitude
60.93784°
Altitude
672.013 km
Speed
7.527 km/s
True Right ascension
21h 38m 19s
True Declination
0° 00' 00"
Sunlit
Object was in full shadow at epoch
Visualization orbit readout
Latitude
10.21161°
Longitude
-117.11793°
Altitude
695.911 km
Speed
7.502 km/s
Apparent Right ascension
09h 32m 21s
Apparent Declination
-13° 25' 33"
Sunlit
Object is in daylight
Visualization observer readout
Local Sidereal Time
21:12:49
Azimuth
349.432° N
Elevation
-63.164°
Doppler factor
1
Orbital elements
Apogee altitude
690.934 km
Perigee altitude
665.429 km
Semi-major axis
7,056.319 km
Eccentricity
0.00181
Inclination
98.3046°
RAAN
324.5802°
Arg. of periapsis
341.2133°
True anomaly
Unknown
Mean anomaly
18.84°
Eccentric anomaly
Unknown
Mean motion
3.66164 °/min
Orbital period
98.32 mins
BSTAR
0.000089606
Loading maneuver chart data...
Loading SW <> Apogee altitude chart data...
Loading historical data...
Loading historical data...
Loading historical data...
Loading historical data...
Loading historical data...
Loading historical data...
Loading historical data...

MOZ.5/SAFIR/RUBIN 5/SL-8 Visibility forecast

Observer location: undefined°, undefined°

Span
Click to sort rows by Start time (UTC) header in descending order
Start Az.
Max El. time (UTC)
Max El. Az.
Max El.
End time (UTC)
End Az.
5 mins2025-07-08 10:07:00.182Z227.6° WSW2025-07-08 10:10:00.182Z274.271° WNW18.155°2025-07-08 10:12:00.182Z303.801° NW
7 mins2025-07-08 22:03:00.182Z10.333° NNE2025-07-08 22:06:00.182Z328.755° NNW44.531°2025-07-08 22:10:00.182Z197.872° SSW
|